SBI5106 URSS-UNNT

Flight info

Callsign SBI5106
Flight time N/A
Altitude 33000
Route IRGID1T IRGID A944 BEMES R227 AKT P574 OGANU N55 BEKOR/K0839F370 N55 DAKIN B944 GOLIM GOLIM1K
Aircraft A320/M-SDE3FGHIRWY/LB1

Departure

Time N/A
Airport Sochi International Airport (URSS)

Arrival

Time 2026-04-27 13:39
Airport Novosibirsk Tolmachevo Airport (UNNT)
Time Latitude Longitude Altitude Speed Heading
2026-04-27 11:20 47.26226 58.08457 33099 ft 506 kts 44°
2026-04-27 11:20 47.28610 58.12276 33096 ft 506 kts 44°
2026-04-27 11:20 47.33313 58.19910 33102 ft 506 kts 45°
2026-04-27 11:21 47.38001 58.27654 33105 ft 506 kts 45°
2026-04-27 11:21 47.42672 58.35418 33103 ft 505 kts 45°
2026-04-27 11:22 47.47344 58.43179 33098 ft 505 kts 45°
2026-04-27 11:22 47.52007 58.50935 33114 ft 504 kts 45°
2026-04-27 11:23 47.56664 58.58699 33112 ft 503 kts 45°
2026-04-27 11:23 47.61283 58.66411 33119 ft 503 kts 45°
2026-04-27 11:24 47.65918 58.74176 33107 ft 503 kts 45°
2026-04-27 11:24 47.70544 58.81958 33117 ft 502 kts 45°
2026-04-27 11:25 47.75158 58.89738 33112 ft 501 kts 45°
2026-04-27 11:25 47.79763 58.97532 33119 ft 501 kts 45°
2026-04-27 11:26 47.84356 59.05318 33128 ft 500 kts 45°
2026-04-27 11:26 47.88940 59.13108 33127 ft 500 kts 45°
2026-04-27 11:27 47.93488 59.20871 33128 ft 499 kts 45°
2026-04-27 11:27 47.98045 59.28671 33129 ft 499 kts 45°
2026-04-27 11:28 48.02602 59.36494 33138 ft 498 kts 45°
2026-04-27 11:28 48.07148 59.44315 33126 ft 498 kts 45°
2026-04-27 11:29 48.11674 59.52132 33133 ft 497 kts 46°
2026-04-27 11:29 48.16200 59.59968 33137 ft 497 kts 46°
2026-04-27 11:30 48.20709 59.67802 33141 ft 496 kts 46°
2026-04-27 11:30 48.25214 59.75642 33136 ft 496 kts 46°
2026-04-27 11:31 48.29712 59.83484 33145 ft 496 kts 46°
2026-04-27 11:31 48.34202 59.91349 33148 ft 495 kts 46°
2026-04-27 11:32 48.38676 59.99232 33151 ft 495 kts 46°
2026-04-27 11:32 48.43149 60.07112 33150 ft 495 kts 46°
2026-04-27 11:33 48.47619 60.14980 33151 ft 494 kts 46°
2026-04-27 11:33 48.52077 60.22887 33145 ft 494 kts 46°
2026-04-27 11:34 48.56512 60.30804 33154 ft 494 kts 46°
2026-04-27 11:34 48.60921 60.38669 33151 ft 493 kts 46°
2026-04-27 11:35 48.65344 60.46590 33156 ft 493 kts 46°
2026-04-27 11:35 48.69769 60.54524 33158 ft 493 kts 46°
2026-04-27 11:36 48.74192 60.62468 33158 ft 493 kts 46°
2026-04-27 11:36 48.78599 60.70423 33165 ft 493 kts 47°
2026-04-27 11:37 48.82256 60.77049 33166 ft 492 kts 47°
2026-04-27 11:37 48.86652 60.85023 33166 ft 492 kts 47°
2026-04-27 11:38 48.91035 60.93006 33168 ft 492 kts 47°
2026-04-27 11:38 48.95420 61.00993 33166 ft 491 kts 47°
2026-04-27 11:39 48.99796 61.08992 33169 ft 491 kts 47°
2026-04-27 11:39 49.04152 61.17008 33171 ft 491 kts 47°
2026-04-27 11:40 49.08502 61.25039 33171 ft 491 kts 47°
2026-04-27 11:40 49.12844 61.33058 33177 ft 490 kts 47°
2026-04-27 11:41 49.17186 61.41089 33177 ft 490 kts 47°
2026-04-27 11:41 49.21515 61.49136 33173 ft 490 kts 47°
2026-04-27 11:42 49.25805 61.57144 33177 ft 489 kts 47°
2026-04-27 11:42 49.30115 61.65209 33193 ft 489 kts 47°
2026-04-27 11:43 49.34411 61.73273 33172 ft 488 kts 47°
2026-04-27 11:43 49.38702 61.81355 33200 ft 488 kts 47°
2026-04-27 11:44 49.42984 61.89426 33180 ft 487 kts 47°
2026-04-27 11:44 49.47263 61.97511 33195 ft 487 kts 48°
2026-04-27 11:45 49.51533 62.05627 33197 ft 487 kts 48°
2026-04-27 11:45 49.55788 62.13745 33201 ft 487 kts 48°
2026-04-27 11:46 49.60008 62.21825 33198 ft 486 kts 48°
2026-04-27 11:46 49.64248 62.29955 33198 ft 486 kts 48°
2026-04-27 11:47 49.68482 62.38089 33198 ft 485 kts 48°
2026-04-27 11:47 49.72705 62.46239 33203 ft 485 kts 48°
2026-04-27 11:48 49.77179 62.53964 33206 ft 480 kts 39°
2026-04-27 11:48 49.82119 62.60920 33203 ft 480 kts 39°
2026-04-27 11:49 49.87053 62.67884 33210 ft 479 kts 39°
2026-04-27 11:49 49.91970 62.74861 33206 ft 479 kts 39°
2026-04-27 11:50 49.96875 62.81852 33209 ft 478 kts 39°
2026-04-27 11:50 50.01770 62.88860 33211 ft 478 kts 39°
2026-04-27 11:51 50.06399 62.96289 33214 ft 482 kts 49°
2026-04-27 11:52 50.12617 63.08594 33215 ft 481 kts 49°
2026-04-27 11:52 50.16739 63.16819 33219 ft 481 kts 49°
2026-04-27 11:53 50.20855 63.25048 33218 ft 481 kts 49°
2026-04-27 11:53 50.24972 63.33277 33223 ft 481 kts 49°
2026-04-27 11:54 50.29081 63.41526 33221 ft 480 kts 49°
2026-04-27 11:54 50.33171 63.49775 33225 ft 480 kts 49°
2026-04-27 11:55 50.37259 63.58050 33223 ft 480 kts 49°
2026-04-27 11:55 50.41339 63.66323 33225 ft 480 kts 49°
2026-04-27 11:56 50.45410 63.74602 33228 ft 480 kts 49°
2026-04-27 11:56 50.49483 63.82911 33231 ft 480 kts 49°
2026-04-27 11:57 50.53557 63.91234 33233 ft 480 kts 49°
2026-04-27 11:57 50.57614 63.99557 33234 ft 480 kts 50°
2026-04-27 11:58 50.61670 64.07919 33238 ft 480 kts 50°
2026-04-27 11:58 50.65717 64.16299 33240 ft 480 kts 50°
2026-04-27 11:59 50.69760 64.24689 33240 ft 480 kts 50°
2026-04-27 11:59 50.73774 64.33017 33240 ft 480 kts 50°
2026-04-27 12:00 50.77812 64.41446 33244 ft 481 kts 50°
2026-04-27 12:00 50.81837 64.49878 33242 ft 481 kts 50°
2026-04-27 12:01 50.85859 64.58327 33246 ft 481 kts 50°
2026-04-27 12:01 50.89878 64.66785 33242 ft 481 kts 50°
2026-04-27 12:02 50.93894 64.75275 33248 ft 481 kts 50°
2026-04-27 12:02 50.97898 64.83784 33250 ft 481 kts 50°
2026-04-27 12:03 51.01900 64.92303 33246 ft 481 kts 50°
2026-04-27 12:03 51.05901 65.00827 33251 ft 481 kts 50°
2026-04-27 12:04 51.09895 65.09371 33247 ft 481 kts 51°
2026-04-27 12:04 51.13879 65.17924 33248 ft 481 kts 51°
2026-04-27 12:05 51.17831 65.26442 33253 ft 481 kts 51°
2026-04-27 12:05 51.21793 65.35027 33255 ft 481 kts 51°
2026-04-27 12:06 51.25752 65.43636 33255 ft 481 kts 51°
2026-04-27 12:06 51.29701 65.52249 33254 ft 481 kts 51°
2026-04-27 12:07 51.33655 65.60868 33255 ft 481 kts 51°
2026-04-27 12:07 51.37594 65.69492 33251 ft 480 kts 52°
2026-04-27 12:08 51.41538 65.78161 33259 ft 480 kts 52°
2026-04-27 12:08 51.45464 65.86837 33256 ft 480 kts 52°
2026-04-27 12:09 51.49378 65.95523 33258 ft 480 kts 52°
2026-04-27 12:09 51.53290 66.04204 33255 ft 480 kts 52°
2026-04-27 12:10 51.57202 66.12908 33247 ft 480 kts 52°
2026-04-27 12:10 51.61105 66.21621 33259 ft 480 kts 52°
2026-04-27 12:11 51.64995 66.30349 33247 ft 479 kts 52°
2026-04-27 12:11 51.68848 66.39044 33264 ft 479 kts 52°
2026-04-27 12:12 51.72716 66.47788 33250 ft 479 kts 52°
2026-04-27 12:12 51.76585 66.56538 33257 ft 479 kts 53°
2026-04-27 12:13 51.80441 66.65298 33256 ft 478 kts 53°
2026-04-27 12:13 51.84281 66.74069 33254 ft 478 kts 53°
2026-04-27 12:14 51.88109 66.82864 33260 ft 477 kts 53°
2026-04-27 12:14 51.91932 66.91651 33264 ft 477 kts 53°
2026-04-27 12:15 51.95755 67.00441 33261 ft 477 kts 53°
2026-04-27 12:15 51.99547 67.09225 33260 ft 476 kts 53°
2026-04-27 12:16 52.03340 67.18044 33262 ft 476 kts 53°
2026-04-27 12:16 52.07123 67.26862 33260 ft 475 kts 53°
2026-04-27 12:17 52.10894 67.35671 33259 ft 475 kts 53°
2026-04-27 12:17 52.14654 67.44482 33260 ft 474 kts 53°
2026-04-27 12:18 52.18403 67.53323 33260 ft 474 kts 53°
2026-04-27 12:18 52.22168 67.62091 33258 ft 473 kts 52°
2026-04-27 12:19 52.26056 67.70822 33259 ft 473 kts 51°
2026-04-27 12:19 52.29939 67.79495 33255 ft 473 kts 52°
2026-04-27 12:20 52.33768 67.88149 33256 ft 473 kts 52°
2026-04-27 12:20 52.37612 67.96920 33258 ft 473 kts 52°
2026-04-27 12:21 52.41417 68.05634 33256 ft 472 kts 52°
2026-04-27 12:21 52.45229 68.14407 33256 ft 472 kts 52°
2026-04-27 12:22 52.48405 68.21731 33256 ft 472 kts 52°
2026-04-27 12:22 52.52205 68.30503 33255 ft 472 kts 52°
2026-04-27 12:23 52.55998 68.39289 33254 ft 472 kts 52°
2026-04-27 12:23 52.59788 68.48110 33254 ft 472 kts 52°
2026-04-27 12:24 52.63583 68.56943 33255 ft 473 kts 52°
2026-04-27 12:24 52.67360 68.65773 33253 ft 473 kts 52°
2026-04-27 12:25 52.71136 68.74658 33253 ft 473 kts 52°
2026-04-27 12:25 52.74898 68.83539 33252 ft 473 kts 52°
2026-04-27 12:26 52.78657 68.92435 33251 ft 473 kts 52°
2026-04-27 12:26 52.82430 69.01387 33253 ft 473 kts 52°
2026-04-27 12:27 52.86202 69.10371 33251 ft 474 kts 52°
2026-04-27 12:27 52.89946 69.19330 33253 ft 474 kts 52°
2026-04-27 12:28 52.93673 69.28277 33248 ft 474 kts 52°
2026-04-27 12:28 52.97427 69.37310 33250 ft 474 kts 52°
2026-04-27 12:29 53.01166 69.46341 33248 ft 474 kts 52°
2026-04-27 12:29 53.04873 69.55336 33248 ft 475 kts 52°
2026-04-27 12:30 53.08596 69.64410 33250 ft 475 kts 52°
2026-04-27 12:30 53.12326 69.73534 33248 ft 475 kts 52°
2026-04-27 12:31 53.16026 69.82595 33247 ft 475 kts 52°
2026-04-27 12:31 53.19738 69.91725 33251 ft 475 kts 53°
2026-04-27 12:32 53.23446 70.00876 33249 ft 475 kts 53°
2026-04-27 12:32 53.27128 70.10003 33252 ft 476 kts 53°
2026-04-27 12:33 53.30820 70.19178 33256 ft 476 kts 53°
2026-04-27 12:33 53.34501 70.28366 33257 ft 476 kts 53°
2026-04-27 12:34 53.38199 70.37634 33254 ft 476 kts 53°
2026-04-27 12:34 53.41874 70.46865 33253 ft 476 kts 53°
2026-04-27 12:35 53.45516 70.56062 33255 ft 477 kts 53°
2026-04-27 12:35 53.49171 70.65333 33250 ft 477 kts 53°
2026-04-27 12:36 53.52828 70.74636 33252 ft 477 kts 53°
2026-04-27 12:36 53.56478 70.83957 33260 ft 477 kts 53°
2026-04-27 12:37 53.60112 70.93265 33259 ft 477 kts 53°
2026-04-27 12:37 53.63758 71.02623 33255 ft 477 kts 53°
2026-04-27 12:38 53.67396 71.12008 33256 ft 478 kts 53°
2026-04-27 12:38 53.70992 71.21356 33252 ft 478 kts 53°
2026-04-27 12:39 53.74640 71.30829 33258 ft 478 kts 53°
2026-04-27 12:39 53.78260 71.40258 33256 ft 479 kts 53°
2026-04-27 12:40 53.81881 71.49732 33260 ft 479 kts 53°
2026-04-27 12:40 53.85481 71.59208 33261 ft 480 kts 53°
2026-04-27 12:41 53.89069 71.68685 33263 ft 480 kts 53°
2026-04-27 12:41 53.92679 71.78236 33264 ft 480 kts 53°
2026-04-27 12:42 53.96300 71.87838 33258 ft 481 kts 53°
2026-04-27 12:42 53.99886 71.97430 33260 ft 482 kts 53°
2026-04-27 12:43 54.03444 72.06991 33263 ft 482 kts 53°
2026-04-27 12:43 54.07038 72.16674 33262 ft 483 kts 53°
2026-04-27 12:44 54.10626 72.26363 33263 ft 483 kts 53°
2026-04-27 12:44 54.14209 72.36075 33259 ft 484 kts 53°
2026-04-27 12:44 54.15828 72.41133 33258 ft 490 kts 64°
2026-04-27 12:45 54.16905 72.46680 33265 ft 494 kts 70°
2026-04-27 12:45 54.18826 72.57941 33261 ft 494 kts 70°
2026-04-27 12:46 54.20732 72.69229 33262 ft 495 kts 70°
2026-04-27 12:46 54.22632 72.80545 33261 ft 495 kts 70°
2026-04-27 12:47 54.24511 72.91776 33263 ft 496 kts 71°
2026-04-27 12:47 54.26396 73.03132 33260 ft 497 kts 71°
2026-04-27 12:48 54.28283 73.14556 33265 ft 497 kts 71°
2026-04-27 12:48 54.30158 73.25968 33265 ft 498 kts 71°
2026-04-27 12:49 54.32027 73.37386 33266 ft 498 kts 71°
2026-04-27 12:49 54.33877 73.48823 33262 ft 499 kts 71°
2026-04-27 12:50 54.35720 73.60301 33264 ft 500 kts 71°
2026-04-27 12:50 54.37555 73.71808 33264 ft 500 kts 71°
2026-04-27 12:51 54.39372 73.83298 33256 ft 501 kts 71°
2026-04-27 12:51 54.41198 73.94862 33260 ft 501 kts 71°
2026-04-27 12:52 54.43009 74.06440 33245 ft 502 kts 71°
2026-04-27 12:52 54.44814 74.18042 33267 ft 503 kts 72°
2026-04-27 12:53 54.47500 74.35473 33258 ft 504 kts 72°
2026-04-27 12:53 54.49280 74.47130 33261 ft 504 kts 72°
2026-04-27 12:54 54.51049 74.58817 33259 ft 505 kts 72°
2026-04-27 12:54 54.52809 74.70520 33253 ft 505 kts 72°
2026-04-27 12:55 54.54562 74.82251 33256 ft 506 kts 72°
2026-04-27 12:55 54.56301 74.93990 33256 ft 506 kts 72°
2026-04-27 12:56 54.58033 75.05769 33257 ft 507 kts 72°
2026-04-27 12:56 54.59759 75.17548 33253 ft 507 kts 73°
2026-04-27 12:57 54.61474 75.29378 33250 ft 508 kts 73°
2026-04-27 12:57 54.63162 75.41132 33261 ft 508 kts 73°
2026-04-27 12:58 54.64854 75.52989 33248 ft 509 kts 73°
2026-04-27 12:58 54.66540 75.64859 33249 ft 509 kts 73°
2026-04-27 12:59 54.68222 75.76759 33251 ft 509 kts 73°
2026-04-27 12:59 54.69888 75.88659 33251 ft 510 kts 73°
2026-04-27 13:00 54.71544 76.00569 33248 ft 510 kts 73°
2026-04-27 13:00 54.73185 76.12527 33254 ft 510 kts 74°
2026-04-27 13:01 54.74814 76.24482 33251 ft 511 kts 74°
2026-04-27 13:01 54.76435 76.36461 33253 ft 511 kts 74°
2026-04-27 13:02 54.78042 76.48461 33245 ft 512 kts 74°
2026-04-27 13:02 54.79641 76.60469 33241 ft 512 kts 74°
2026-04-27 13:03 54.81235 76.72507 33243 ft 513 kts 75°
2026-04-27 13:03 54.82819 76.84572 33246 ft 513 kts 75°
2026-04-27 13:04 54.84386 76.96663 33239 ft 513 kts 75°
2026-04-27 13:04 54.85943 77.08738 33245 ft 513 kts 75°
2026-04-27 13:05 54.87480 77.20809 33243 ft 513 kts 75°
2026-04-27 13:05 54.89016 77.32922 33242 ft 514 kts 75°
2026-04-27 13:06 54.90540 77.45050 33240 ft 514 kts 76°
2026-04-27 13:06 54.92042 77.57153 33234 ft 514 kts 76°
2026-04-27 13:07 54.93232 77.69456 33237 ft 515 kts 81°
2026-04-27 13:07 54.94101 77.81857 33234 ft 516 kts 82°
2026-04-27 13:08 54.94923 77.94203 33235 ft 516 kts 82°
2026-04-27 13:08 54.95745 78.06617 33236 ft 516 kts 82°
2026-04-27 13:09 54.96577 78.19001 33235 ft 516 kts 82°
2026-04-27 13:09 54.97402 78.31408 33237 ft 516 kts 82°
2026-04-27 13:10 54.98203 78.43815 33234 ft 516 kts 83°
2026-04-27 13:10 54.98851 78.54165 33234 ft 520 kts 83°
2026-04-27 13:11 54.99632 78.66724 33233 ft 523 kts 83°
2026-04-27 13:11 55.00542 78.81368 33234 ft 523 kts 83°
2026-04-27 13:12 55.01177 78.91926 33233 ft 523 kts 83°
2026-04-27 13:12 55.01927 79.04518 33232 ft 523 kts 83°
2026-04-27 13:13 55.02661 79.17119 33234 ft 522 kts 84°
2026-04-27 13:13 55.03376 79.29714 33231 ft 522 kts 84°
2026-04-27 13:14 55.04077 79.42319 33232 ft 522 kts 84°
2026-04-27 13:14 55.04777 79.54915 33233 ft 522 kts 84°
2026-04-27 13:15 55.05476 79.67506 33229 ft 522 kts 84°
2026-04-27 13:15 55.06149 79.80110 33199 ft 521 kts 84°
2026-04-27 13:16 55.06467 79.86281 32639 ft 516 kts 85°
2026-04-27 13:16 55.06785 79.92526 31714 ft 505 kts 85°
2026-04-27 13:16 55.07096 79.98593 30713 ft 498 kts 85°
2026-04-27 13:16 55.07399 80.04544 29610 ft 490 kts 86°
2026-04-27 13:17 55.07694 80.10361 28515 ft 482 kts 86°
2026-04-27 13:17 55.07985 80.16136 27469 ft 473 kts 86°
2026-04-27 13:17 55.08271 80.21823 26460 ft 465 kts 86°
2026-04-27 13:17 55.08548 80.27420 25481 ft 458 kts 86°
2026-04-27 13:18 55.08815 80.32903 24545 ft 450 kts 86°
2026-04-27 13:18 55.09072 80.38322 23571 ft 444 kts 86°
2026-04-27 13:18 55.09317 80.43647 22525 ft 437 kts 86°
2026-04-27 13:18 55.09558 80.48895 21549 ft 430 kts 86°
2026-04-27 13:19 55.09798 80.54059 20617 ft 424 kts 85°
2026-04-27 13:19 55.10037 80.59148 19721 ft 417 kts 85°
2026-04-27 13:19 55.10272 80.64158 18857 ft 411 kts 85°
2026-04-27 13:19 55.10501 80.69111 17952 ft 406 kts 85°
2026-04-27 13:20 55.10724 80.73974 17063 ft 399 kts 85°
2026-04-27 13:20 55.10943 80.78771 16219 ft 392 kts 85°
2026-04-27 13:20 55.11154 80.83491 15397 ft 386 kts 85°
2026-04-27 13:20 55.11357 80.88120 14597 ft 380 kts 85°
2026-04-27 13:21 55.11554 80.92686 13783 ft 373 kts 85°
2026-04-27 13:21 55.11737 80.97167 12909 ft 367 kts 86°
2026-04-27 13:21 55.11832 81.01569 12071 ft 360 kts 88°
2026-04-27 13:21 55.11858 81.05905 11243 ft 354 kts 89°
2026-04-27 13:22 55.11849 81.10161 10450 ft 347 kts 90°
2026-04-27 13:22 55.11830 81.14346 9584 ft 341 kts 90°
2026-04-27 13:22 55.11814 81.18454 8718 ft 336 kts 89°
2026-04-27 13:22 55.11807 81.22501 7869 ft 330 kts 89°
2026-04-27 13:23 55.11808 81.26486 7362 ft 327 kts 89°
2026-04-27 13:23 55.11816 81.30459 7221 ft 327 kts 89°
2026-04-27 13:23 55.11826 81.34377 7222 ft 327 kts 89°
2026-04-27 13:23 55.11836 81.38406 7222 ft 328 kts 89°
2026-04-27 13:24 55.11841 81.42336 7224 ft 328 kts 89°
2026-04-27 13:24 55.11844 81.46318 7224 ft 328 kts 89°
2026-04-27 13:24 55.11845 81.50299 7221 ft 328 kts 89°
2026-04-27 13:24 55.11846 81.54280 7221 ft 328 kts 89°
2026-04-27 13:25 55.11844 81.58260 7217 ft 327 kts 89°
2026-04-27 13:25 55.11842 81.62236 7218 ft 328 kts 89°
2026-04-27 13:25 55.11839 81.66213 7225 ft 327 kts 89°
2026-04-27 13:25 55.11835 81.70186 7224 ft 327 kts 89°
2026-04-27 13:26 55.11827 81.74162 7226 ft 327 kts 89°
2026-04-27 13:26 55.11816 81.78124 7224 ft 327 kts 89°
2026-04-27 13:26 55.11804 81.82096 7227 ft 327 kts 89°
2026-04-27 13:26 55.11788 81.86063 7221 ft 322 kts 90°
2026-04-27 13:27 55.11775 81.89776 7218 ft 292 kts 89°
2026-04-27 13:27 55.11785 81.93287 7223 ft 287 kts 89°
2026-04-27 13:27 55.11797 81.96758 7223 ft 285 kts 89°
2026-04-27 13:27 55.11812 82.00227 7226 ft 287 kts 89°
2026-04-27 13:28 55.11826 82.03704 7222 ft 286 kts 89°
2026-04-27 13:28 55.11840 82.07177 7221 ft 286 kts 89°
2026-04-27 13:28 55.11855 82.10650 7223 ft 286 kts 89°
2026-04-27 13:28 55.11870 82.14124 7222 ft 286 kts 88°
2026-04-27 13:29 55.11887 82.17592 7219 ft 286 kts 89°
2026-04-27 13:29 55.11904 82.21061 7218 ft 285 kts 88°
2026-04-27 13:29 55.11922 82.24526 7221 ft 286 kts 89°
2026-04-27 13:29 55.11942 82.28000 7222 ft 285 kts 88°
2026-04-27 13:30 55.11960 82.31470 7224 ft 286 kts 88°
2026-04-27 13:30 55.12027 82.34927 7218 ft 285 kts 85°
2026-04-27 13:30 55.12177 82.38389 7218 ft 285 kts 84°
2026-04-27 13:30 55.12360 82.41833 7158 ft 282 kts 83°
2026-04-27 13:31 55.12545 82.45211 6511 ft 279 kts 83°
2026-04-27 13:31 55.12725 82.48572 5809 ft 277 kts 84°
2026-04-27 13:31 55.12897 82.51912 5190 ft 274 kts 84°
2026-04-27 13:31 55.13065 82.55222 5017 ft 275 kts 84°
2026-04-27 13:32 55.13411 82.58484 5009 ft 274 kts 71°
2026-04-27 13:32 55.13956 82.61696 5012 ft 276 kts 72°
2026-04-27 13:32 55.14487 82.64905 5008 ft 275 kts 72°
2026-04-27 13:32 55.14994 82.67999 5001 ft 252 kts 72°
2026-04-27 13:33 55.15463 82.70860 5016 ft 242 kts 72°
2026-04-27 13:33 55.15867 82.73692 4777 ft 240 kts 82°
2026-04-27 13:33 55.15923 82.76606 4483 ft 240 kts 88°
2026-04-27 13:33 55.15949 82.79511 4190 ft 239 kts 88°
2026-04-27 13:34 55.15966 82.82402 3775 ft 236 kts 91°
2026-04-27 13:34 55.15500 82.85108 3267 ft 236 kts 128°
2026-04-27 13:34 55.14232 82.86776 2870 ft 227 kts 165°
2026-04-27 13:34 55.12687 82.87033 2378 ft 224 kts 183°
2026-04-27 13:35 55.11114 82.87094 2030 ft 224 kts 180°
2026-04-27 13:35 55.09590 82.87218 1997 ft 215 kts 180°
2026-04-27 13:35 55.08131 82.87350 2005 ft 207 kts 181°
2026-04-27 13:35 55.06698 82.87474 2030 ft 201 kts 180°
2026-04-27 13:36 55.05379 82.87538 2021 ft 183 kts 189°
2026-04-27 13:36 55.04220 82.86872 2004 ft 172 kts 216°
2026-04-27 13:36 55.03374 82.85487 2009 ft 165 kts 239°
2026-04-27 13:36 55.02930 82.83684 2013 ft 161 kts 262°
2026-04-27 13:37 55.02761 82.81767 2013 ft 160 kts 263°
2026-04-27 13:37 55.02593 82.79882 1994 ft 154 kts 263°
2026-04-27 13:37 55.02429 82.78061 1599 ft 152 kts 263°
2026-04-27 13:37 55.02265 82.76251 1163 ft 149 kts 262°
2026-04-27 13:38 55.02096 82.74447 1054 ft 165 kts 262°
2026-04-27 13:38 55.01897 82.72561 953 ft 145 kts 262°
2026-04-27 13:38 55.01747 82.70888 725 ft 136 kts 263°
2026-04-27 13:38 55.01617 82.69318 535 ft 128 kts 264°
2026-04-27 13:39 55.01482 82.67706 415 ft 146 kts 262°
2026-04-27 13:39 55.01347 82.66183 372 ft 81 kts 260°
2026-04-27 13:39 55.01291 82.65596 373 ft 39 kts 260°
2026-04-27 13:39 55.01248 82.65141 373 ft 23 kts 259°
2026-04-27 13:40 55.01129 82.65074 373 ft 19 kts 172°
2026-04-27 13:40 55.01116 82.65077 373 ft 0 kts 172°
2026-04-27 13:43 55.01053 82.65093 373 ft 17 kts 170°
2026-04-27 13:43 55.00924 82.65127 373 ft 18 kts 171°
2026-04-27 13:43 55.00892 82.65151 373 ft 2 kts 135°
2026-04-27 13:43 55.00890 82.65157 373 ft 0 kts 120°
2026-04-27 13:44 55.00890 82.65158 373 ft 0 kts 117°
2026-04-27 13:44 55.00884 82.65218 373 ft 11 kts 92°
2026-04-27 13:44 55.00893 82.65402 373 ft 18 kts 80°
2026-04-27 13:45 55.00918 82.65645 373 ft 22 kts 81°
2026-04-27 13:45 55.00941 82.65919 373 ft 24 kts 81°
2026-04-27 13:45 55.00963 82.66115 373 ft 10 kts 71°
2026-04-27 13:45 55.00991 82.66215 373 ft 9 kts 65°
2026-04-27 13:46 55.01010 82.66309 373 ft 8 kts 76°
2026-04-27 13:46 55.01037 82.66450 373 ft 13 kts 70°
2026-04-27 13:46 55.01009 82.66527 373 ft 8 kts 162°
2026-04-27 13:46 55.00963 82.66544 373 ft 0 kts 171°
2026-04-27 13:47 55.00963 82.66545 373 ft 0 kts 171°